Tracking 19717 objects as of 24-Jun-2019
HD Live streaming from Space Station
objects crossing your sky now

FLOCK 2K 28

Track FLOCK 2K 28 now!
10-day predictions
FLOCK 2K 28 is classified as:


NORAD ID: 42880
Int'l Code: 2017-042BH
Perigee: 457.8 km
Apogee: 473.6 km
Inclination: 96.9 °
Period: 93.8 minutes
Semi major axis: 6836 km
RCS: Unknown
Launch date: July 14, 2017
Source: United States (US)
Launch site: TYURATAM MISSILE AND SPACE COMPLEX (TTMTR)
aabbcc
Your satellite tracking list
Your tracking list is empty




NASA's NSSDC Master Catalog

Two Line Element Set (TLE):
1 42880U 17042BH  19174.86417589 +.00000934 +00000-0 +28845-4 0  9993
2 42880 096.9398 055.3579 0011541 192.3175 167.7789 15.35805800108629
Source of the keplerian elements: AFSPC